Regional Weather Roundup
Issued by NWS

Home | Current Version | Previous Version | Graphics & Text | Print | Product List | Glossary On
Versions: 1 2 3 4 5 6 7 8 9 10 11 12 13 14 15 16 17 18 19 20 21 22 23 24 25 26 27 28 29 30 31 32 33 34 35 36 37 38 39 40 41 42 43 44 45 46 47 48 49 50
543
ASUS43 KBIS 292010
RWRND

NORTH DAKOTA REGIONAL WEATHER ROUNDUP
NATIONAL WEATHER SERVICE BISMARCK ND
300 PM CDT WED MAR 29 2017

NOTE: "FAIR" INDICATES FEW OR NO CLOUDS BELOW 12,000 FEET WITH NO
SIGNIFICANT WEATHER AND/OR OBSTRUCTIONS TO VISIBILITY.


NDZ001>003-009>011-017-292100-
NORTHWEST NORTH DAKOTA

CITY           SKY/WX    TMP DP  RH WIND       PRES   REMARKS
WILLISTON      FAIR      62  32  32 W16       29.93F
MINOT          FAIR      60  41  49 SW22      29.94F
MINOT AFB      MOSUNNY   57  45  64 SW15      29.93F
$$

NDZ018>021-031>035-040>046-292100-
SOUTHWEST NORTH DAKOTA

CITY           SKY/WX    TMP DP  RH WIND       PRES   REMARKS
BISMARCK       CLOUDY    61  39  44 S15       30.01F
DICKINSON      FAIR      60  30  32 SW14G23   29.94F
GARRISON         N/A     58  42  55 S10       29.96F
HETTINGER ARPT MOSUNNY   59  38  45 VRB7      30.00F
$$

NDZ004>008-012>016-024-026-027-054-292100-
NORTHEAST NORTH DAKOTA

CITY           SKY/WX    TMP DP  RH WIND       PRES   REMARKS
GRAND FORKS    MOSUNNY   60  46  59 S12       30.07F
GRND FRKS AFB  SUNNY     60  44  54 S13       30.07F
DEVILS LAKE    CLOUDY    56  39  53 S14       30.03F
$$

NDZ022-023-025-028>030-036>039-047>053-292100-
SOUTHEAST NORTH DAKOTA

CITY           SKY/WX    TMP DP  RH WIND       PRES   REMARKS
FARGO          CLOUDY    61  40  45 S17       30.10F
JAMESTOWN      FAIR      62  35  36 S18       30.04F
$$





USA.gov is the U.S. government's official web portal to all federal, state and local government web resources and services.